Weather History for PALH - May, 2013

Change the Weather History Date:

Thursday, May 9, 2013

  Actual Average Record
Temperature  
Mean Temperature 44 °F -  
Max Temperature 53 °F 52 °F 66 °F (2005)
Min Temperature 36 °F 36 °F 35 °F (1999)
Degree Days  
Heating Degree Days 20    
Moisture  
Dew Point 27 °F    
Average Humidity 51    
Maximum Humidity 73    
Minimum Humidity 37    
Precipitation  
Precipitation 0.00 in - - ()
Sea Level Pressure  
Sea Level Pressure 30.27 in    
Wind  
Wind Speed 3 mph (North)    
Max Wind Speed 10 mph    
Max Gust Speed -    
Visibility 10 miles    
Events Rain    
Averages and records for this station are not official NWS values.
T = Trace of Precipitation, MM = Missing Value Source: NWS Daily Summary

Daily Weather History Graph

Daily Weather History Graph

Search for Another Location

Airport or City:

Trip Planner

Search our weather history database for the weather conditions in past years. The results will help you decide how hot, cold, wet, or windy it might be!

Date:

Astronomy

May. 09, 2013 Rise Set
Actual Time 5:27 AM AKDT 10:26 PM AKDT
Civil Twilight 4:23 AM AKDT 11:31 PM AKDT
Nautical Twilight 2:28 AM AKDT 1:23 AM AKDT
Astronomical Twilight Sun does not set Sun does not set
Moon 5:28 AM AKDT (5/9) 10:30 PM AKDT (5/9)
Length of Visible Light 19h 07m
Length of Day
16h 59m
Waning Crescent, 0% of the Moon is Illuminated
May 9
Waning Crescent
May 9
New
May 17
First Quarter
May 24
Full
May 31
Last Quarter

Hourly Weather History & Observations

Time (AKDT) Temp. Windchill Dew Point Humidity Pressure Visibility Wind Dir Wind Speed Gust Speed Precip Events Conditions
12:53 AM 43.0 °F - 21.9 °F 43% 30.25 in 10.0 mi Calm Calm - N/A   Clear
1:53 AM 39.0 °F 36.8 °F 24.1 °F 55% 30.26 in 10.0 mi North 3.5 mph - N/A   Clear
2:53 AM 37.0 °F 34.5 °F 27.0 °F 67% 30.27 in 10.0 mi North 3.5 mph - N/A   Clear
3:53 AM 36.0 °F - 28.0 °F 73% 30.27 in 10.0 mi Calm Calm - N/A   Clear
4:53 AM 36.0 °F 33.3 °F 24.1 °F 62% 30.27 in 10.0 mi North 3.5 mph - N/A   Clear
5:53 AM 36.0 °F - 23.0 °F 59% 30.27 in 10.0 mi Calm Calm - N/A   Clear
6:53 AM 36.0 °F 33.3 °F 26.1 °F 67% 30.27 in 10.0 mi NNE 3.5 mph - N/A   Clear
7:53 AM 37.9 °F 33.5 °F 23.0 °F 55% 30.27 in 10.0 mi NE 5.8 mph - N/A   Clear
9:53 AM 42.1 °F 40.2 °F 23.0 °F 47% 30.29 in 10.0 mi NNE 3.5 mph - N/A   Overcast
10:53 AM 44.1 °F 42.5 °F 24.1 °F 45% 30.30 in 10.0 mi North 3.5 mph - N/A   Overcast
11:53 AM 46.0 °F - 24.1 °F 42% 30.29 in 10.0 mi Calm Calm - N/A   Overcast
12:53 PM 48.0 °F - 23.0 °F 37% 30.30 in 10.0 mi Calm Calm - N/A   Overcast
1:53 PM 48.0 °F - 25.0 °F 41% 30.31 in 10.0 mi North 5.8 mph - N/A   Overcast
2:53 PM 48.0 °F - 27.0 °F 44% 30.31 in 10.0 mi North 4.6 mph - 0.00 in Rain Light Rain
3:53 PM 50.0 °F - 28.0 °F 43% 30.29 in 10.0 mi North 6.9 mph - 0.00 in   Partly Cloudy
4:53 PM 53.1 °F - 28.9 °F 40% 30.28 in 10.0 mi NNE 10.4 mph - N/A   Overcast
5:53 PM 51.1 °F - 28.9 °F 43% 30.27 in 10.0 mi North 6.9 mph - N/A   Overcast
6:53 PM 52.0 °F - 30.0 °F 43% 30.26 in 10.0 mi NNW 3.5 mph - N/A   Overcast
7:53 PM 51.1 °F - 30.0 °F 44% 30.25 in 10.0 mi North 3.5 mph - N/A   Mostly Cloudy
8:53 PM 50.0 °F - 28.9 °F 44% 30.25 in 10.0 mi North 3.5 mph - N/A   Overcast
9:53 PM 46.9 °F - 30.9 °F 54% 30.24 in 10.0 mi Calm Calm - N/A   Mostly Cloudy
10:53 PM 46.9 °F - 30.0 °F 52% 30.25 in 10.0 mi NNE 4.6 mph - N/A   Partly Cloudy
11:53 PM 43.0 °F 41.3 °F 30.9 °F 62% 30.25 in 10.0 mi North 3.5 mph - N/A   Overcast